Location: Mitty Observatory
(35.9148°N, 88.8847°W)
Time: 19:13:43
(UTC-05:00)

N. Korean satellite - Visible Passes

Search period start: 20 October 2019 00:00
Search period end: 30 October 2019 00:00
Orbit: 455 x 508 km, 97.2° (Epoch: 20 October)

Date Brightness Start Highest point End Pass type
(mag) Time Alt. Az. Time Alt. Az. Time Alt. Az.
20 Oct 9.3 06:09:07 10° NE 06:12:06 24° E 06:15:07 10° SSE visible
21 Oct 10.4 05:45:28 10° ENE 05:46:41 11° E 05:47:54 10° ESE visible
22 Oct 9.9 18:58:35 10° SW 19:00:49 16° W 19:03:04 10° NW visible
23 Oct 8.2 06:26:09 10° NNE 06:29:38 41° E 06:33:08 10° S visible
23 Oct 8.4 18:32:14 10° SSW 18:35:24 36° W 18:38:37 10° NNW visible
24 Oct 9.7 06:01:33 10° NE 06:04:15 19° E 06:06:58 10° SE visible
26 Oct 6.9 06:43:25 10° NNE 06:47:07 77° ESE 06:50:48 10° S visible
26 Oct 9.6 18:50:14 10° SSW 18:52:54 21° W 18:55:34 10° NW visible
27 Oct 8.7 06:18:24 10° NNE 06:21:46 33° E 06:25:08 10° SSE visible
28 Oct 10.0 05:54:02 10° NE 05:56:20 16° E 05:58:38 10° SE visible
29 Oct 10.2 19:08:56 10° WSW 19:10:24 12° W 19:11:52 10° WNW visible
